FW6060 Weather Reports


time (UTC)temp
F
wind
direction
speed
knots
gust
knots
rain 1hr
in
rain 24hr
in
rain mn
in
humidity
%
barometer
mb
20260504194519 72 198 2.6 10.4 0.00 0.00 0.00 33 1010.4
20260504193024 72 228 1.7 9.6 0.00 0.00 0.00 36 1010.5
20260504191523 72 264 3.5 10.4 0.00 0.00 0.00 37 1010.7
20260504190014 72 211 4.3 9.6 0.00 0.00 0.00 36 1010.8
20260504184521 70 212 4.3 14.8 0.00 0.00 0.00 35 1011.0
20260504183027 71 238 4.3 13.0 0.00 0.00 0.00 37 1011.2
20260504181508 70 268 3.5 11.3 0.00 0.00 0.00 37 1011.4
20260504180018 70 194 5.2 13.9 0.00 0.00 0.00 38 1011.6
20260504171518 69 261 2.6 12.2 0.00 0.00 0.00 41 1012.1
20260504081508 43 269 0.0 0.0 0.00 0.00 0.00 68 1014.9
20260504050024 49 263 1.7 6.1 0.00 0.00 0.00 54 1014.6
20260504044537 49 257 1.7 6.1 0.00 0.00 0.00 54 1014.6
20260504043008 49 261 0.9 6.1 0.00 0.00 0.00 55 1014.4
20260504041517 49 275 0.9 5.2 0.00 0.00 0.00 56 1014.2
20260504040004 48 269 0.0 2.6 0.00 0.00 0.00 57 1014.2
20260504034506 47 267 0.0 3.5 0.00 0.00 0.00 59 1013.9
20260504033013 46 265 0.0 1.7 0.00 0.00 0.00 61 1013.9
20260504031518 46 265 0.0 1.7 0.00 0.00 0.00 62 1013.9
20260504030002 46 265 0.0 0.0 0.00 0.00 0.00 63 1013.8
20260504024515 46 265 0.0 0.9 0.00 0.00 0.00 66 1014.0
20260504023014 46 265 0.0 0.0 0.00 0.00 0.00 66 1013.8
20260504021531 46 265 0.0 0.0 0.00 0.00 0.00 64 1013.9
20260504020008 47 265 0.0 0.9 0.00 0.00 0.00 63 1013.8
20260504014514 47 265 0.0 0.0 0.00 0.00 0.00 59 1013.7
20260504013027 48 265 0.0 0.9 0.00 0.00 0.00 56 1013.6
20260504011521 50 265 0.0 0.0 0.00 0.00 0.00 53 1013.5
20260504010009 51 265 0.0 0.9 0.00 0.00 0.00 49 1013.2
20260504004513 52 265 0.0 0.0 0.00 0.00 0.00 47 1013.0
20260504003020 54 265 0.0 0.0 0.00 0.00 0.00 44 1012.8
20260504001524 55 265 0.0 2.6 0.00 0.00 0.00 41 1012.6
20260504000007 56 265 0.9 3.5 0.00 0.00 0.00 39 1012.5
20260503234510 57 281 3.5 7.8 0.00 0.00 0.00 37 1012.4
20260503233020 58 270 2.6 10.4 0.00 0.00 0.00 36 1012.2
20260503231526 58 271 4.3 8.7 0.00 0.00 0.00 35 1012.1
20260503230009 59 338 1.7 12.2 0.00 0.00 0.00 34 1012.0
20260503224515 59 278 1.7 13.0 0.00 0.00 0.00 35 1012.0
20260503223019 59 251 1.7 11.3 0.00 0.00 0.00 34 1011.9
20260503221505 60 263 3.5 14.8 0.00 0.00 0.00 32 1011.9
20260503220010 60 240 3.5 9.6 0.00 0.00 0.00 33 1011.9
20260503214516 60 257 3.5 9.6 0.00 0.00 0.00 33 1011.9
20260503213030 60 281 2.6 8.7 0.00 0.00 0.00 31 1011.8
20260503211514 60 271 7.0 13.0 0.00 0.00 0.00 34 1011.9
20260503210014 60 271 3.5 12.2 0.00 0.00 0.00 34 1011.9
20260503204525 60 323 3.5 11.3 0.00 0.00 0.00 33 1012.1
20260503203024 58 294 4.3 14.8 0.00 0.00 0.00 33 1012.2
20260503201523 59 232 4.3 11.3 0.00 0.00 0.00 34 1012.1
20260503200017 59 360 1.7 7.8 0.00 0.00 0.00 37 1012.0